CAPE
0 0 0 7 0 0 0 0 0 0 0 0 1 25 14 0 5 64 227 517 1162 1256 1363 1597 1479 1271 1215 1147 1296 1602 2322 2556 2604 2639 2480 2442 2458 2508 2315 1780 2535 2405 2744 2707
0 0 8 4 0 0 0 0 0 0 0 0 0 14 3 0 0 29 67 320 672 1223 1321 1572 1755 1629 1494 1492 1469 1512 2103 2436 2707 2658 2640 2435 2499 2442 2736 2711 2146 2445 2696 2476
0 21 1 0 0 1 0 0 0 0 0 0 1 6 3 0 0 6 32 84 529 842 1150 1645 1767 1832 1830 1880 1717 1768 1761 2278 2571 2764 2646 2673 2555 2738 2705 2910 2962 2643 2441 2795
1 21 3 0 3 3 0 0 0 0 18 0 52 198 79 0 0 0 18 64 193 459 681 905 1247 2106 1981 1969 2197 2022 1992 2012 2261 2649 2833 2741 2824 2714 2940 2966 3080 3194 3131 2843
1 15 4 9 5 8 19 25 10 231 230 51 284 315 159 122 271 368 459 558 613 521 417 460 207 250 2343 2218 2335 2528 2276 2305 2290 2762 2813 2984 2924 3082 3055 3066 3165 3207 3411 3375
0 11 30 66 0 0 0 33 24 175 429 46 355 268 201 98 160 366 561 662 768 635 437 432 806 620 2343 2698 2530 2694 2823 2961 2805 2816 2971 2931 3048 3064 3216 3328 3265 3322 3310 3550
11 13 35 26 0 0 6 4 24 262 215 271 64 11 0 49 176 773 1157 1025 1050 795 745 879 623 554 1188 1727 2881 2687 2525 2806 3386 3503 3336 3296 3202 3299 3409 3540 3584 3567 3624 3594
16 20 68 5 1 10 0 0 25 35 428 185 40 0 9 51 478 917 1241 1661 2093 1756 1111 615 417 1274 852 892 1977 2524 2901 3033 2975 3241 3250 3494 3622 3653 3790 3814 3847 3808 3837 3855
7 7 0 0 0 0 0 0 27 0 19 15 26 12 71 73 174 988 1153 1697 2118 2338 2643 2992 1715 1306 1314 2972 3091 3701 2915 3096 3239 3393 3375 3065 3701 3729 4097 4085 4090 4051 3988 4010
0 0 0 0 0 0 0 0 30 0 0 0 0 0 0 8 5 1104 1209 1413 1683 2050 2683 3432 3264 3111 3192 3552 3295 2458 3343 4270 3643 3752 4161 3647 3835 3903 3980 4219 4142 4099 4128 4078
0 0 0 0 0 0 0 0 0 0 0 0 0 0 0 0 0 531 1011 952 1495 1557 2029 2576 2814 3114 3044 3173 3289 3810 2723 4592 4291 4243 4265 4139 3693 4243 4055 3922 4054 4123 4065 3932
0 0 0 0 0 0 0 0 0 0 0 0 0 0 0 0 0 80 52 41 427 1177 1566 1926 2255 2510 2433 2873 3237 3291 3818 4392 4587 4101 4035 4243 4271 3793 3689 4058 3959 3866 3919 3979
0 0 0 0 0 0 0 0 0 0 0 0 0 0 0 0 0 0 81 175 391 701 1075 1583 1594 1456 1294 1547 2125 3209 3395 3604 3378 3660 3783 4081 4106 4053 3873 3338 3272 3573 3862 3753
7 0 0 0 0 0 0 0 0 0 0 0 0 0 0 0 0 0 50 225 379 653 1352 1344 1446 1481 1669 2068 2016 2512 3202 3212 3205 3093 2977 3540 3580 3683 4018 3815 3336 2761 2815 2965
0 2 0 0 0 0 0 0 0 0 0 0 0 0 0 0 0 0 295 478 681 1017 1087 1212 1195 1290 1816 1053 1358 1607 3251 2934 2985 2993 2741 3218 3361 3299 3245 3439 3344 3201 3009 2729
0 0 0 0 0 0 0 0 0 0 0 0 0 0 0 0 0 3 59 354 803 905 1061 903 772 882 1090 1143 716 1090 1869 2195 2417 2112 2117 2033 1975 2165 2257 2346 2228 2113 2087 1545
0 0 1 5 1 0 0 0 0 0 0 0 0 0 0 0 0 34 20 425 608 691 912 508 509 680 725 1080 1252 591 594 513 233 162 544 98 110 797 461 48 0 0 0 0
2 1 14 0 0 0 0 0 2 6 3 0 0 0 0 0 16 41 42 57 184 133 424 469 429 603 708 710 670 749 253 174 117 73 45 85 61 17 0 0 0 0 0 0
0 0 5 13 13 1 2 0 7 0 0 0 0 1 7 32 48 22 14 45 33 52 60 190 115 394 799 539 492 640 413 258 101 46 34 8 0 0 0 1 1 1 1 0
0 0 0 0 2 3 0 5 6 0 0 8 47 20 29 35 46 62 51 44 30 10 79 55 86 308 387 348 487 427 570 279 357 378 49 0 0 2 0 0 3 0 2 0
4 0 0 0 0 0 0 0 0 12 17 8 4 4 31 20 60 86 70 75 62 95 58 74 58 121 119 269 107 55 42 40 28 7 10 2 0 0 2 4 5 3 2 0
36 8 0 0 0 0 0 0 0 0 0 0 2 13 16 23 65 6 29 19 21 26 21 22 18 69 78 105 80 83 37 28 50 11 3 0 0 0 0 0 0 0 0 0
8 50 7 0 0 0 0 0 0 0 0 0 0 0 5 39 48 26 12 0 4 1 3 4 4 2 4 8 7 7 4 0 1 0 0 0 0 0 0 0 0 0 0 0
1 38 47 9 0 0 0 0 0 0 0 0 0 0 0 0 0 0 0 0 0 0 0 0 0 0 0 0 1 3 0 0 0 0 0 0 0 4 2 0 0 0 0 0
44 47 18 12 30 14 7 2 0 0 0 0 0 0 0 0 0 0 0 0 0 0 0 0 0 0 0 0 0 0 0 2 0 0 0 0 1 1 0 0 0 0 0 0
24 37 57 23 0 0 0 0 0 0 0 0 0 0 0 0 0 0 0 0 0 0 0 0 0 0 0 0 0 0 0 2 0 1 3 3 3 0 0 0 0 0 0 0
0 0 0 2 4 0 0 0 0 0 0 0 0 0 0 0 0 0 0 0 0 0 0 0 0 0 0 0 0 0 0 0 0 0 0 0 0 1 1 0 0 0 0 0
CIN
-0 -0 -0 -1 -0 -0 -0 -0 -0 -0 -0 -0 -16 -108 -134 -0 -42 -137 -126 -76 -50 -86 -94 -131 -173 -141 -250 -271 -261 -253 -256 -236 -245 -210 -216 -199 -179 -169 -189 -243 -112 -92 -67 -36
-0 -0 -3 -5 -0 -0 -0 -0 -0 -0 -0 -0 -0 -146 -120 -0 -0 -102 -66 -54 -64 -39 -68 -81 -111 -136 -255 -257 -264 -263 -270 -322 -268 -256 -251 -269 -245 -228 -174 -178 -234 -162 -105 -140
-0 -0 -3 -0 -0 -9 -0 -0 -0 -0 -0 -0 -23 -98 -77 -0 -0 -120 -111 -47 -22 -29 -27 -67 -163 -147 -161 -195 -242 -257 -291 -292 -298 -277 -286 -288 -288 -241 -229 -213 -176 -212 -220 -170
-0 -5 -4 -0 -5 -14 -0 -0 -0 -0 -64 -41 -127 -231 -260 -0 -0 -0 -232 -83 -18 -17 -29 -17 -55 -123 -113 -149 -161 -148 -255 -316 -317 -299 -301 -294 -275 -292 -250 -236 -211 -198 -196 -235
-0 -4 -11 -3 -4 -26 -51 -368 -164 -331 -40 -28 -217 -275 -324 -332 -349 -328 -294 -295 -323 -300 -31 -169 -47 -62 -116 -143 -177 -225 -190 -292 -338 -329 -317 -302 -298 -264 -253 -230 -213 -213 -192 -199
-0 -2 -4 -6 -2 -0 -0 -44 -189 -255 -196 -33 -210 -265 -301 -421 -340 -412 -320 -310 -303 -311 -378 -396 -216 -232 -95 -123 -156 -205 -212 -294 -327 -306 -304 -327 -318 -293 -246 -222 -220 -203 -213 -206
-4 -4 -2 -42 -0 -1 -4 -10 -172 -159 -119 -70 -157 -236 -0 -539 -417 -266 -280 -278 -246 -262 -295 -316 -236 -253 -100 -102 -119 -157 -165 -238 -210 -212 -266 -290 -283 -265 -238 -201 -164 -167 -177 -187
-4 -7 -4 -83 -45 -29 -0 -0 -96 -144 -53 -88 -206 -0 -397 -403 -294 -171 -153 -167 -103 -130 -153 -240 -291 -134 -275 -68 -202 -178 -133 -161 -205 -252 -224 -224 -202 -210 -182 -160 -140 -131 -122 -128
-4 -33 -0 -0 -0 -0 -0 -0 -35 -46 -136 -162 -213 -311 -334 -358 -343 -129 -146 -127 -100 -114 -127 -115 -127 -178 -221 -179 -148 -143 -206 -190 -208 -255 -246 -170 -191 -186 -124 -111 -96 -91 -73 -80
-0 -0 -0 -0 -0 -0 -0 -0 -6 -0 -0 -0 -0 -0 -0 -347 -322 -96 -116 -164 -172 -101 -100 -80 -130 -189 -187 -193 -206 -207 -170 -130 -224 -232 -197 -155 -195 -137 -108 -80 -71 -52 -51 -68
-0 -0 -0 -0 -0 -0 -0 -0 -53 -0 -0 -0 -0 -0 -0 -0 -0 -126 -175 -205 -163 -148 -102 -25 -17 -33 -95 -134 -149 -158 -250 -95 -120 -148 -150 -145 -116 -74 -55 -60 -39 -29 -38 -37
-0 -0 -0 -0 -0 -0 -0 -0 -0 -0 -0 -0 -0 -0 -0 -0 -0 -277 -625 -593 -386 -145 -83 -40 -39 -24 -51 -56 -71 -109 -123 -73 -63 -112 -128 -98 -80 -63 -56 -37 -34 -20 -22 -10
-0 -0 -0 -0 -0 -0 -0 -0 -0 -0 -0 -0 -0 -0 -0 -0 -0 -0 -453 -421 -321 -172 -88 -48 -61 -138 -206 -212 -172 -74 -72 -71 -66 -45 -51 -62 -63 -40 -33 -65 -65 -45 -13 -11
-1 -0 -0 -0 -0 -0 -0 -0 -0 -0 -0 -0 -0 -0 -0 -0 -0 -0 -358 -285 -255 -162 -41 -61 -65 -86 -96 -87 -123 -72 -23 -33 -44 -61 -95 -62 -49 -67 -32 -29 -36 -67 -52 -29
-0 -0 -0 -0 -0 -0 -0 -0 -0 -0 -0 -0 -0 -0 -0 -0 -0 -0 -142 -121 -100 -20 -18 -33 -73 -74 -42 -168 -136 -103 -1 -25 -23 -21 -44 -34 -22 -18 -20 -3 -2 -9 -14 -23
-0 -0 -0 -0 -0 -0 -0 -0 -0 -0 -0 -0 -0 -0 -0 -0 -0 -7 -212 -123 -44 -29 -32 -54 -130 -134 -86 -84 -207 -102 -30 -8 -0 -23 -35 -25 -36 -43 -32 -21 -29 -34 -34 -67
-0 -0 -1 -0 -0 -0 -0 -0 -0 -0 -0 -0 -0 -0 -0 -0 -0 -60 -11 -48 -53 -47 -15 -112 -126 -119 -95 -38 -74 -169 -137 -193 -280 -368 -118 -418 -211 -106 -132 -525 -0 -0 -0 -0
-1 -0 -1 -0 -0 -0 -0 -0 -4 -28 -49 -0 -0 -0 -0 -0 -4 -0 -24 -78 -63 -99 -52 -64 -89 -117 -70 -37 -49 -43 -148 -164 -251 -335 -395 -360 -377 -414 -0 -0 -0 -0 -0 -0
-0 -0 -0 -0 -0 -0 -0 -0 -1 -0 -0 -0 -0 -0 -0 -0 -0 -0 -1 -1 -1 -1 -74 -59 -148 -73 -17 -36 -25 -7 -43 -106 -228 -273 -259 -321 -0 -0 -0 -0 -0 -0 -0 -0
-0 -0 -0 -0 -0 -0 -0 -0 -0 -0 -0 -0 -0 -2 -0 -0 -0 -0 -0 -0 -1 -2 -8 -0 -50 -4 -0 -2 -3 -2 -1 -18 -12 -23 -98 -0 -0 -0 -0 -0 -0 -0 -0 -0
-1 -0 -0 -0 -0 -0 -0 -0 -0 -0 -0 -7 -0 -13 -0 -0 -0 -0 -0 -0 -0 -0 -2 -0 -1 -47 -77 -32 -24 -60 -16 -3 -14 -40 -38 -1 -0 -0 -0 -0 -0 -0 -0 -0
-5 -6 -0 -0 -0 -0 -0 -0 -0 -0 -0 -0 -38 -3 -3 -0 -0 -23 -6 -3 -5 -17 -6 -0 -2 -0 -0 -0 -0 -0 -1 -4 -1 -32 -13 -0 -0 -0 -0 -0 -0 -0 -0 -0
-4 -17 -8 -0 -0 -0 -0 -0 -0 -0 -0 -0 -0 -0 -0 -0 -0 -0 -0 -0 -0 -0 -0 -0 -0 -0 -0 -0 -0 -4 -5 -0 -3 -0 -0 -0 -0 -0 -0 -0 -0 -0 -0 -0
-3 -33 -28 -0 -0 -0 -0 -0 -0 -0 -0 -0 -0 -0 -0 -1 -0 -0 -0 -0 -0 -0 -0 -0 -0 -0 -0 -0 -0 -0 -0 -0 -0 -0 -0 -0 -0 -0 -0 -0 -0 -0 -0 -0
-29 -21 -34 -23 -14 -24 -30 -0 -0 -0 -0 -0 -0 -0 -0 -0 -0 -0 -0 -0 -0 -0 -0 -0 -0 -0 -0 -0 -0 -0 -0 -0 -0 -0 -0 -0 -0 -0 -0 -0 -0 -0 -0 -0
-58 -5 -15 -26 -0 -0 -5 -0 -0 -0 -0 -0 -0 -0 -0 -0 -0 -0 -0 -0 -0 -0 -0 -0 -0 -0 -0 -0 -0 -0 -0 -0 -0 -0 -0 -0 -0 -0 -0 -0 -0 -0 -0 -0
-0 -0 -1 -1 -7 -0 -0 -0 -0 -0 -0 -0 -0 -0 -0 -0 -0 -0 -0 -0 -0 -0 -0 -0 -0 -0 -0 -0 -0 -0 -0 -0 -0 -0 -0 -0 -0 -0 -0 -0 -0 -0 -0 -0
Wind_Speed
nan nan nan nan nan nan nan nan nan nan nan nan nan nan nan nan nan nan 32 40 42 26 21 14 13 15 12 9 10 11 9 7 7 9 12 10 11 12 14 16 13 14 13 12
nan nan nan nan nan nan nan nan nan nan nan nan nan nan nan nan nan nan nan 47 44 41 28 18 13 13 17 10 8 11 8 9 10 13 9 10 11 10 12 15 14 12 14 16
nan nan nan nan nan nan nan nan nan nan nan nan nan nan nan nan nan nan nan nan 52 47 39 27 16 10 17 15 11 7 5 6 9 12 8 7 10 11 11 12 12 16 16 15
nan nan nan nan nan nan nan nan nan nan nan nan nan 42 nan nan nan nan nan nan 50 47 32 25 24 13 6 17 17 10 5 6 4 8 5 6 10 13 13 10 10 9 11 14
nan nan nan nan nan nan nan nan nan 61 30 nan 54 58 58 58 54 46 46 46 40 33 27 28 20 20 15 17 14 14 7 6 5 7 5 6 9 10 10 13 12 9 8 11
nan nan nan nan nan nan nan nan nan 72 69 nan 58 47 45 nan 55 52 43 37 38 38 36 33 31 27 23 16 18 16 13 10 14 14 12 7 8 12 13 13 13 15 14 14
nan nan nan nan nan nan nan nan nan 74 66 72 nan nan nan nan 52 53 46 41 39 34 31 28 32 37 37 27 18 15 15 20 21 20 17 15 17 17 18 18 20 20 20 19
nan nan nan nan nan nan nan nan nan nan 65 71 nan nan nan nan 52 47 56 55 44 39 33 29 30 31 29 25 17 17 23 25 22 23 24 29 27 25 26 27 27 25 26 23
nan nan nan nan nan nan nan nan nan nan nan nan nan nan nan nan 59 47 47 50 48 42 41 37 28 28 28 23 24 32 25 26 30 28 28 33 33 33 32 32 32 33 33 31
nan nan nan nan nan nan nan nan nan nan nan nan nan nan nan nan nan 55 52 48 49 45 44 44 42 36 31 29 25 22 29 30 31 33 36 39 40 36 33 32 32 35 37 36
nan nan nan nan nan nan nan nan nan nan nan nan nan nan nan nan nan 59 44 51 50 48 44 40 39 35 37 37 33 31 23 25 29 34 37 39 37 36 30 30 31 31 30 34
nan nan nan nan nan nan nan nan nan nan nan nan nan nan nan nan nan nan nan nan 51 52 48 40 42 39 38 37 36 36 32 29 30 32 33 34 36 39 49 46 49 52 48 43
nan nan nan nan nan nan nan nan nan nan nan nan nan nan nan nan nan nan nan 53 52 50 46 42 44 43 37 35 33 35 36 36 34 35 38 35 36 37 43 44 48 51 54 55
nan nan nan nan nan nan nan nan nan nan nan nan nan nan nan nan nan nan nan 48 50 48 44 42 45 46 43 39 40 36 36 41 43 43 43 46 46 45 47 46 46 47 46 50
nan nan nan nan nan nan nan nan nan nan nan nan nan nan nan nan nan nan 48 46 45 45 44 46 50 49 47 47 48 46 46 43 44 46 47 48 49 49 50 51 50 51 51 48
nan nan nan nan nan nan nan nan nan nan nan nan nan nan nan nan nan nan nan 52 51 46 49 44 46 44 44 45 47 47 49 52 50 49 49 52 52 53 54 52 52 53 54 53
nan nan nan nan nan nan nan nan nan nan nan nan nan nan nan nan nan nan nan 62 64 59 58 54 51 49 46 44 41 45 51 53 57 55 55 nan 56 57 57 nan nan nan nan nan
nan nan nan nan nan nan nan nan nan nan nan nan nan nan nan nan nan nan nan nan 63 64 69 61 59 49 52 54 54 49 54 55 57 nan nan nan nan nan nan nan nan nan nan nan
nan nan nan nan nan nan nan nan nan nan nan nan nan nan nan nan nan nan nan nan nan nan nan 62 67 66 62 65 71 70 70 70 68 nan nan nan nan nan nan nan nan nan nan nan
nan nan nan nan nan nan nan nan nan nan nan nan nan nan nan nan nan nan nan nan nan nan nan nan nan 67 71 69 75 68 71 76 77 75 nan nan nan nan nan nan nan nan nan nan
nan nan nan nan nan nan nan nan nan nan nan nan nan nan nan nan nan nan nan nan nan nan nan nan nan 67 71 67 73 nan nan nan nan nan nan nan nan nan nan nan nan nan nan nan
nan nan nan nan nan nan nan nan nan nan nan nan nan nan nan nan nan nan nan nan nan nan nan nan nan nan nan 81 nan nan nan nan nan nan nan nan nan nan nan nan nan nan nan nan
nan nan nan nan nan nan nan nan nan nan nan nan nan nan nan nan nan nan nan nan nan nan nan nan nan nan nan nan nan nan nan nan nan nan nan nan nan nan nan nan nan nan nan nan
nan nan nan nan nan nan nan nan nan nan nan nan nan nan nan nan nan nan nan nan nan nan nan nan nan nan nan nan nan nan nan nan nan nan nan nan nan nan nan nan nan nan nan nan
nan nan nan nan nan nan nan nan nan nan nan nan nan nan nan nan nan nan nan nan nan nan nan nan nan nan nan nan nan nan nan nan nan nan nan nan nan nan nan nan nan nan nan nan
nan nan nan nan nan nan nan nan nan nan nan nan nan nan nan nan nan nan nan nan nan nan nan nan nan nan nan nan nan nan nan nan nan nan nan nan nan nan nan nan nan nan nan nan
nan nan nan nan nan nan nan nan nan nan nan nan nan nan nan nan nan nan nan nan nan nan nan nan nan nan nan nan nan nan nan nan nan nan nan nan nan nan nan nan nan nan nan nan
Wind_Direction
nan nan nan nan nan nan nan nan nan nan nan nan nan nan nan nan nan nan 219 238 258 279 276 283 294 309 283 272 278 278 304 323 350 335 349 3 18 37 29 34 37 30 24 22
nan nan nan nan nan nan nan nan nan nan nan nan nan nan nan nan nan nan nan 220 233 246 263 270 284 287 289 261 288 303 310 348 338 347 344 13 9 29 31 33 37 28 23 24
nan nan nan nan nan nan nan nan nan nan nan nan nan nan nan nan nan nan nan nan 225 232 242 254 250 267 286 273 248 255 289 326 345 344 347 5 15 9 30 28 17 29 29 19
nan nan nan nan nan nan nan nan nan nan nan nan nan 232 nan nan nan nan nan nan 218 225 236 235 239 262 269 240 249 260 277 289 313 352 356 355 2 13 3 355 5 8 21 36
nan nan nan nan nan nan nan nan nan 190 221 nan 238 230 224 217 218 223 227 231 234 236 236 226 224 245 252 253 258 243 247 269 289 299 337 347 7 4 355 352 336 340 342 4
nan nan nan nan nan nan nan nan nan 199 211 nan 231 221 221 nan 203 213 222 226 230 233 238 222 220 226 246 254 261 270 275 278 269 281 289 316 322 323 315 322 335 310 321 337
nan nan nan nan nan nan nan nan nan 199 204 210 nan nan nan nan 206 203 204 209 214 220 229 235 233 238 240 245 248 251 250 252 256 262 275 278 273 274 289 290 298 305 318 303
nan nan nan nan nan nan nan nan nan nan 201 211 nan nan nan nan 220 204 206 207 208 216 213 216 223 241 242 237 237 234 236 253 260 256 254 250 260 268 277 284 292 295 300 303
nan nan nan nan nan nan nan nan nan nan nan nan nan nan nan nan 219 210 204 206 207 219 216 216 222 236 232 237 222 204 227 249 254 257 258 255 260 259 260 272 276 280 282 283
nan nan nan nan nan nan nan nan nan nan nan nan nan nan nan nan nan 228 214 220 216 217 225 224 227 232 240 233 232 234 214 220 230 242 248 251 252 257 262 265 267 267 270 274
nan nan nan nan nan nan nan nan nan nan nan nan nan nan nan nan nan 232 224 218 218 218 220 228 231 227 224 225 223 223 232 236 238 242 247 252 259 259 261 263 272 271 270 269
nan nan nan nan nan nan nan nan nan nan nan nan nan nan nan nan nan nan nan nan 215 217 219 226 236 237 230 227 222 223 226 240 245 247 247 250 253 255 241 250 260 262 260 267
nan nan nan nan nan nan nan nan nan nan nan nan nan nan nan nan nan nan nan 223 221 219 218 231 235 236 235 235 230 230 228 234 242 246 250 256 257 263 263 252 254 259 266 266
nan nan nan nan nan nan nan nan nan nan nan nan nan nan nan nan nan nan nan 230 229 226 229 232 233 233 233 239 243 238 236 241 242 247 247 249 251 250 259 262 261 260 260 269
nan nan nan nan nan nan nan nan nan nan nan nan nan nan nan nan nan nan 228 226 226 235 231 234 240 236 232 234 238 239 245 246 245 246 247 250 251 253 256 259 262 264 266 264
nan nan nan nan nan nan nan nan nan nan nan nan nan nan nan nan nan nan nan 236 239 239 240 233 234 234 232 233 237 240 243 247 248 249 251 256 256 256 257 258 261 263 263 262
nan nan nan nan nan nan nan nan nan nan nan nan nan nan nan nan nan nan nan 236 242 242 241 241 231 231 233 233 239 242 245 245 247 246 246 nan 250 253 255 nan nan nan nan nan
nan nan nan nan nan nan nan nan nan nan nan nan nan nan nan nan nan nan nan nan 239 236 236 234 236 224 229 232 239 244 243 245 243 nan nan nan nan nan nan nan nan nan nan nan
nan nan nan nan nan nan nan nan nan nan nan nan nan nan nan nan nan nan nan nan nan nan nan 231 232 234 242 240 240 243 245 247 248 nan nan nan nan nan nan nan nan nan nan nan
nan nan nan nan nan nan nan nan nan nan nan nan nan nan nan nan nan nan nan nan nan nan nan nan nan 240 240 239 246 246 246 244 244 244 nan nan nan nan nan nan nan nan nan nan
nan nan nan nan nan nan nan nan nan nan nan nan nan nan nan nan nan nan nan nan nan nan nan nan nan 242 244 244 243 nan nan nan nan nan nan nan nan nan nan nan nan nan nan nan
nan nan nan nan nan nan nan nan nan nan nan nan nan nan nan nan nan nan nan nan nan nan nan nan nan nan nan 242 nan nan nan nan nan nan nan nan nan nan nan nan nan nan nan nan
nan nan nan nan nan nan nan nan nan nan nan nan nan nan nan nan nan nan nan nan nan nan nan nan nan nan nan nan nan nan nan nan nan nan nan nan nan nan nan nan nan nan nan nan
nan nan nan nan nan nan nan nan nan nan nan nan nan nan nan nan nan nan nan nan nan nan nan nan nan nan nan nan nan nan nan nan nan nan nan nan nan nan nan nan nan nan nan nan
nan nan nan nan nan nan nan nan nan nan nan nan nan nan nan nan nan nan nan nan nan nan nan nan nan nan nan nan nan nan nan nan nan nan nan nan nan nan nan nan nan nan nan nan
nan nan nan nan nan nan nan nan nan nan nan nan nan nan nan nan nan nan nan nan nan nan nan nan nan nan nan nan nan nan nan nan nan nan nan nan nan nan nan nan nan nan nan nan
nan nan nan nan nan nan nan nan nan nan nan nan nan nan nan nan nan nan nan nan nan nan nan nan nan nan nan nan nan nan nan nan nan nan nan nan nan nan nan nan nan nan nan nan